Wind_Speed
28 25 22 20 18 19 17 15 15 14 13 12 10 8 8 8 9 9 10 11 10 9 6 4 4 4 6 8 11 13 15 17 20 22 23 26 28 30 31 32 33 35 35
28 27 24 21 20 20 18 17 16 17 16 14 12 10 10 11 11 11 11 12 11 10 8 6 5 5 6 9 11 13 15 18 20 22 25 26 28 29 30 32 32 34 33
32 30 26 23 22 22 19 18 17 17 17 15 13 12 13 13 13 13 13 13 13 11 9 7 6 5 7 9 12 14 16 18 20 22 24 25 27 29 31 31 33 33 31
34 32 27 25 25 23 21 21 18 18 17 16 16 15 15 15 15 14 14 15 15 12 10 8 7 7 7 9 12 14 16 18 20 22 23 25 26 27 29 30 31 33 31
34 33 29 27 28 26 25 22 20 19 18 18 17 16 17 17 16 15 16 17 16 14 11 10 8 8 8 10 12 14 16 18 19 21 22 23 25 26 27 29 31 31 29
33 31 30 30 30 28 26 23 20 19 18 18 17 17 18 18 18 17 17 17 16 15 13 11 10 9 9 11 13 14 16 17 19 20 21 22 23 25 26 27 29 29 26
28 29 30 30 29 27 26 23 20 19 18 18 18 17 18 20 20 18 18 18 17 16 14 12 11 10 10 12 12 14 15 16 18 19 21 21 22 23 25 27 29 28 26
25 23 24 24 24 25 25 23 21 20 19 18 17 17 19 21 21 19 19 18 18 17 15 14 13 12 11 12 13 13 14 15 17 18 19 20 22 22 24 26 28 28 26
27 22 20 23 23 23 23 22 21 20 20 19 18 17 20 22 22 20 20 19 19 18 17 15 15 14 13 13 13 14 14 15 16 17 18 19 20 21 23 24 26 27 26
26 23 23 21 22 21 21 22 22 21 22 22 20 19 21 23 24 22 21 20 19 19 18 17 17 15 14 14 14 14 14 15 16 16 17 18 18 19 21 22 24 25 25
29 26 25 25 22 21 23 25 24 23 24 23 21 21 22 25 26 24 22 21 20 20 20 19 18 17 16 15 15 14 15 15 15 16 17 17 17 18 19 21 22 24 24
29 28 26 26 26 25 24 26 26 26 25 24 23 22 22 26 27 25 23 21 22 21 21 21 19 19 17 16 15 15 15 15 15 15 16 16 15 16 18 19 21 22 23
31 29 28 28 29 27 25 26 26 26 26 25 24 23 22 25 28 25 24 23 23 21 23 22 21 20 18 17 17 16 16 15 15 15 16 16 15 16 17 19 20 21 23
27 29 30 31 30 29 28 27 28 28 27 26 24 22 22 25 28 26 25 24 23 22 23 23 23 23 20 19 18 17 17 16 15 15 15 15 15 15 16 17 19 20 22
28 29 30 31 31 30 28 27 27 26 26 25 24 24 23 23 24 26 26 25 23 25 27 27 26 23 21 21 20 18 18 17 16 16 16 16 15 14 14 16 17 18 19
28 29 31 31 30 29 28 28 28 27 27 27 30 30 27 27 30 31 30 29 29 30 30 27 26 24 22 23 22 20 20 19 18 17 16 16 15 13 13 15 16 17 17
30 31 31 31 30 30 29 28 26 25 26 28 31 32 30 28 33 36 34 33 33 35 32 28 26 24 24 25 24 23 22 21 19 18 17 17 16 14 14 14 15 16 16
29 31 31 31 31 30 28 27 27 26 26 25 28 30 30 29 31 36 37 39 38 35 31 27 25 24 25 26 26 26 25 23 21 20 19 18 17 15 15 14 14 16 16
26 32 32 31 32 30 30 29 28 27 26 27 29 32 33 31 30 35 40 41 36 33 31 28 26 26 28 28 28 28 28 26 23 22 21 20 19 17 17 16 15 16 17
31 36 31 29 32 32 32 31 30 29 27 27 29 31 33 33 32 32 36 37 35 33 31 30 28 28 30 31 31 30 30 28 25 24 23 22 21 19 19 17 17 17 17
25 28 32 31 30 27 27 27 27 28 26 26 27 30 31 31 30 29 30 33 34 34 33 32 32 32 33 34 35 34 32 30 28 27 25 24 23 21 21 19 19 19 19
35 26 38 29 35 37 26 31 31 31 28 27 28 30 32 32 30 27 26 27 30 32 33 33 34 35 36 38 37 36 33 31 30 28 27 27 26 24 23 22 20 20 21
32 30 33 36 37 40 38 38 36 33 32 30 30 31 33 32 31 29 27 25 25 26 28 30 32 33 35 36 37 36 33 30 29 31 31 30 29 26 26 24 23 22 21
33 34 33 37 43 45 44 41 39 38 35 33 33 34 34 33 34 33 31 31 30 30 29 29 30 31 32 33 34 33 32 30 30 31 33 32 31 30 29 28 26 25 24
38 38 38 37 42 45 43 41 39 37 34 34 35 36 36 35 36 34 33 34 34 34 34 34 33 32 33 33 33 32 32 31 31 32 33 34 33 32 31 31 30 29 27
28 27 33 34 35 32 31 33 33 32 30 30 30 32 33 33 34 34 34 35 36 36 36 36 35 35 35 35 34 34 33 31 31 32 33 35 36 34 32 34 33 33 30
Wind_Direction
211 214 217 218 224 229 230 235 241 242 249 252 254 246 248 232 219 212 205 203 203 209 214 229 264 309 330 339 339 341 342 345 346 345 344 347 349 351 352 354 355 353 352
219 215 216 220 226 233 235 239 242 242 247 249 249 245 243 233 222 216 211 208 209 214 217 232 264 298 324 330 336 336 344 344 344 344 346 347 350 352 352 354 356 354 353
218 216 220 222 229 234 236 242 243 243 243 245 248 242 237 231 223 217 213 212 215 218 223 237 262 291 314 326 331 336 342 341 344 345 346 348 350 352 353 355 355 354 353
214 216 218 225 230 234 234 241 243 241 240 244 248 242 236 230 225 219 215 215 217 221 228 241 261 284 305 321 326 334 338 341 344 344 346 348 350 353 355 355 355 354 354
211 216 221 228 229 232 233 238 242 239 240 245 246 241 236 230 225 220 217 217 220 224 231 242 257 279 300 317 322 332 336 341 342 344 345 347 351 355 357 356 355 355 356
211 218 223 226 228 229 231 235 237 237 240 242 242 241 237 228 226 224 222 222 226 229 236 247 261 279 300 313 322 329 334 338 339 342 343 347 352 356 357 358 357 354 354
207 210 218 225 226 227 229 232 233 235 235 235 236 239 239 232 227 224 225 227 230 234 240 250 263 278 295 305 317 322 330 335 337 340 342 346 353 357 357 358 358 356 356
204 208 214 216 219 224 227 229 229 231 230 230 232 239 243 234 229 227 227 230 233 237 241 249 261 272 287 298 307 316 325 331 336 337 342 346 353 356 358 358 357 356 357
208 212 219 219 223 227 226 228 230 230 228 229 234 245 248 236 231 230 231 232 235 238 242 250 259 269 281 291 303 315 322 328 332 336 340 347 352 355 356 358 358 357 357
217 214 222 226 226 228 226 227 229 227 225 228 235 246 245 234 230 229 232 234 237 241 243 248 258 268 278 288 300 309 316 323 328 333 340 346 350 354 355 357 357 358 358
221 220 218 224 229 228 225 224 227 227 229 234 239 248 247 235 230 229 232 236 239 243 247 250 257 265 271 282 293 303 311 317 324 332 337 341 346 350 354 356 357 359 358
216 219 222 227 231 229 226 224 226 230 234 236 240 248 252 237 230 230 232 235 240 244 248 252 257 262 268 277 288 298 305 312 319 326 330 334 340 348 352 355 356 358 358
220 222 224 225 229 229 227 227 232 235 239 241 243 249 254 243 234 232 234 237 240 243 248 252 256 261 265 273 282 292 299 305 311 318 324 327 333 343 350 352 355 358 357
219 221 225 225 230 227 228 230 234 238 243 244 245 248 252 244 235 233 237 240 242 245 250 253 253 256 262 269 277 286 292 297 303 309 316 321 328 336 344 349 351 356 355
221 223 224 226 229 227 231 237 242 247 250 247 242 241 245 246 240 238 238 240 241 243 245 249 253 257 260 265 272 279 285 290 296 302 310 315 320 325 336 343 348 352 352
221 224 222 223 225 228 233 238 242 247 247 241 236 237 239 235 228 231 233 235 238 243 248 251 255 256 258 263 269 275 280 285 290 295 302 308 312 313 323 334 341 345 350
219 221 219 221 224 230 236 241 246 247 247 243 239 236 238 245 237 233 235 237 239 243 248 253 257 258 258 262 267 272 275 280 285 288 294 300 304 304 308 321 331 336 343
217 220 217 219 225 229 232 235 238 243 247 246 239 236 240 246 246 241 240 241 244 249 255 258 260 259 257 260 264 269 272 277 280 282 285 291 297 297 296 304 317 325 331
214 218 217 222 224 226 228 231 239 239 242 241 233 232 237 244 246 241 242 246 251 254 258 258 258 257 258 259 262 266 270 274 276 278 278 283 289 292 290 293 302 313 320
214 225 211 213 223 220 223 229 236 243 240 239 236 235 239 246 252 256 252 251 253 254 256 258 259 258 259 261 262 264 267 270 273 273 273 277 282 287 289 289 293 301 308
201 219 213 206 215 224 229 233 236 240 241 240 238 240 245 251 256 258 251 248 249 251 252 253 253 253 254 257 260 264 266 268 269 269 270 272 276 281 286 288 290 294 299
237 234 217 218 237 234 235 243 239 236 236 236 237 240 243 248 253 257 259 255 252 252 252 252 254 255 256 259 262 265 268 270 270 269 267 267 270 275 281 285 288 291 294
225 235 229 232 234 227 222 236 236 235 235 235 236 239 244 250 254 256 257 258 257 256 255 256 256 255 256 259 263 267 269 271 269 264 265 266 268 272 275 280 284 287 290
216 225 223 219 223 222 221 225 235 236 233 232 235 239 241 244 249 252 253 254 256 257 258 259 261 261 259 260 262 267 270 269 268 267 267 268 269 270 273 276 280 282 285
223 223 228 233 236 232 229 221 222 232 238 241 241 242 244 246 250 254 258 261 262 261 262 262 263 266 267 264 263 265 266 266 265 264 266 267 267 267 271 275 277 279 281
237 233 229 232 225 230 212 208 221 223 226 231 237 245 248 253 258 261 263 265 267 267 266 266 267 268 269 271 270 269 269 270 270 269 266 268 267 264 265 271 272 275 277
Height
3132 3136 3140 3143 3147 3150 3152 3154 3156 3158 3159 3160 3160 3160 3162 3162 3163 3164 3166 3167 3169 3170 3170 3171 3170 3170 3169 3168 3167 3165 3162 3158 3155 3151 3147 3143 3138 3133 3127 3122 3115 3109 3102
3128 3132 3135 3139 3143 3146 3148 3150 3152 3154 3155 3157 3158 3158 3159 3160 3161 3162 3164 3165 3167 3168 3169 3169 3168 3168 3168 3166 3164 3162 3159 3156 3152 3149 3145 3140 3136 3131 3125 3119 3114 3107 3100
3122 3127 3130 3135 3140 3142 3144 3146 3148 3150 3152 3153 3154 3155 3156 3157 3158 3160 3161 3163 3165 3166 3166 3166 3166 3166 3165 3164 3162 3160 3156 3153 3150 3146 3142 3138 3133 3128 3122 3117 3111 3105 3099
3115 3120 3125 3131 3135 3137 3139 3141 3144 3146 3147 3149 3150 3151 3152 3153 3155 3157 3159 3161 3162 3163 3163 3164 3164 3164 3163 3161 3160 3157 3154 3151 3148 3144 3141 3136 3132 3127 3121 3116 3110 3103 3097
3109 3115 3121 3125 3128 3131 3134 3136 3139 3141 3143 3144 3146 3147 3148 3150 3152 3154 3156 3157 3158 3159 3160 3161 3161 3161 3160 3159 3157 3155 3152 3149 3146 3143 3139 3135 3130 3125 3121 3114 3107 3102 3096
3104 3110 3115 3119 3122 3125 3128 3131 3133 3135 3138 3140 3142 3143 3144 3146 3148 3150 3152 3153 3155 3156 3157 3158 3158 3158 3157 3156 3155 3152 3149 3146 3143 3140 3136 3133 3128 3123 3118 3113 3107 3102 3097
3100 3105 3109 3113 3116 3120 3122 3125 3128 3131 3133 3135 3137 3139 3141 3142 3145 3147 3149 3150 3152 3153 3154 3155 3155 3154 3154 3153 3151 3149 3146 3143 3141 3137 3134 3130 3126 3121 3116 3111 3106 3100 3095
3096 3101 3104 3107 3111 3114 3117 3120 3123 3125 3128 3130 3133 3134 3136 3138 3140 3143 3144 3146 3148 3150 3150 3150 3151 3150 3150 3150 3148 3146 3143 3141 3138 3135 3131 3127 3123 3119 3114 3109 3104 3099 3094
3092 3096 3100 3103 3106 3109 3112 3115 3119 3121 3123 3126 3128 3129 3131 3133 3136 3138 3140 3142 3144 3145 3146 3146 3147 3147 3146 3146 3144 3142 3140 3138 3135 3133 3129 3125 3121 3116 3112 3107 3103 3097 3092
3087 3092 3096 3099 3102 3105 3108 3111 3114 3116 3119 3120 3122 3124 3126 3127 3131 3133 3135 3137 3139 3141 3141 3142 3143 3143 3143 3142 3141 3139 3137 3135 3133 3130 3127 3123 3119 3115 3111 3106 3102 3097 3092
3082 3087 3091 3095 3098 3100 3103 3105 3108 3111 3113 3115 3117 3119 3120 3122 3125 3127 3130 3132 3134 3136 3137 3138 3138 3138 3138 3138 3137 3136 3134 3132 3129 3126 3124 3120 3117 3113 3109 3105 3100 3096 3091
3077 3082 3086 3090 3092 3094 3097 3099 3102 3104 3107 3109 3111 3113 3115 3117 3119 3122 3125 3127 3129 3131 3132 3133 3133 3134 3134 3134 3133 3132 3130 3128 3125 3123 3121 3118 3114 3111 3108 3104 3099 3095 3090
3071 3076 3080 3083 3085 3088 3090 3094 3096 3098 3101 3103 3106 3108 3110 3111 3114 3116 3119 3121 3124 3126 3126 3127 3128 3129 3129 3129 3128 3128 3126 3124 3122 3120 3117 3114 3111 3108 3105 3102 3097 3093 3089
3064 3069 3072 3075 3078 3081 3084 3087 3089 3092 3095 3098 3100 3103 3104 3105 3107 3111 3113 3116 3118 3120 3121 3121 3122 3123 3124 3124 3123 3122 3121 3119 3118 3116 3113 3111 3108 3106 3103 3099 3095 3091 3087
3058 3062 3065 3068 3072 3075 3078 3081 3084 3087 3090 3092 3095 3097 3098 3099 3103 3105 3107 3110 3113 3113 3113 3115 3116 3118 3119 3118 3118 3117 3116 3115 3113 3111 3109 3107 3105 3103 3100 3097 3093 3089 3086
3051 3055 3058 3062 3065 3069 3072 3075 3078 3080 3082 3085 3087 3088 3090 3092 3093 3096 3099 3103 3104 3105 3106 3109 3111 3112 3113 3112 3112 3112 3111 3110 3108 3107 3105 3103 3101 3099 3097 3094 3091 3088 3084
3045 3048 3052 3056 3059 3063 3066 3069 3072 3074 3075 3077 3078 3081 3083 3086 3087 3089 3092 3095 3097 3097 3100 3103 3105 3106 3106 3106 3106 3106 3105 3104 3103 3102 3100 3099 3097 3095 3093 3090 3088 3085 3081
3038 3043 3047 3050 3053 3056 3060 3062 3064 3066 3068 3070 3072 3075 3077 3078 3079 3082 3084 3085 3086 3090 3094 3097 3099 3099 3099 3099 3099 3099 3098 3098 3098 3096 3096 3094 3093 3091 3089 3087 3084 3082 3079
3031 3037 3040 3043 3046 3049 3052 3054 3057 3058 3060 3062 3064 3066 3068 3070 3071 3072 3074 3076 3082 3085 3088 3090 3092 3092 3091 3091 3092 3092 3092 3091 3091 3091 3090 3089 3087 3086 3084 3082 3080 3078 3076
3026 3032 3032 3035 3039 3040 3043 3045 3048 3051 3052 3054 3056 3059 3060 3062 3064 3066 3068 3070 3074 3077 3080 3082 3083 3083 3083 3083 3083 3084 3084 3084 3084 3084 3083 3083 3082 3080 3079 3077 3075 3074 3072
3017 3025 3026 3026 3030 3034 3037 3039 3041 3044 3045 3047 3050 3052 3054 3056 3057 3058 3059 3061 3065 3068 3070 3072 3073 3074 3074 3074 3074 3075 3076 3077 3077 3077 3076 3076 3075 3074 3073 3072 3070 3068 3066
3009 3012 3014 3018 3022 3026 3030 3033 3035 3036 3037 3040 3042 3044 3046 3046 3049 3051 3053 3054 3056 3058 3060 3061 3062 3064 3064 3064 3065 3066 3067 3068 3069 3069 3068 3068 3068 3067 3067 3066 3064 3062 3061
3002 3005 3007 3011 3014 3017 3020 3024 3026 3027 3029 3031 3033 3035 3037 3039 3041 3043 3045 3047 3048 3049 3050 3051 3052 3053 3054 3055 3055 3057 3058 3060 3061 3060 3059 3060 3060 3060 3059 3059 3058 3056 3055
2995 2998 3001 3004 3005 3006 3008 3012 3016 3018 3020 3022 3024 3026 3028 3030 3032 3035 3036 3038 3040 3041 3041 3042 3043 3044 3045 3045 3046 3047 3049 3051 3051 3051 3051 3051 3052 3052 3052 3051 3050 3049 3048
2988 2989 2991 2995 2996 2998 2998 3001 3004 3010 3014 3016 3017 3019 3021 3023 3025 3027 3029 3030 3031 3032 3033 3033 3034 3035 3036 3036 3037 3038 3038 3039 3040 3041 3040 3041 3042 3043 3043 3043 3042 3040 3040
2979 2977 2983 2984 2987 2991 2991 2994 2998 3001 3005 3009 3012 3013 3015 3016 3018 3019 3020 3021 3023 3023 3023 3024 3026 3026 3027 3027 3028 3028 3029 3030 3031 3031 3031 3030 3031 3032 3033 3033 3033 3032 3031